Starlink 30349

operational
NORAD ID: 57713 Int'l Des: 2023-129 Owner: SPXS Country: US Constellation: starlink
LEOCIRCULAR

About Starlink 30349

Description loading...

Live Position

Loading 3D Globe...

Upcoming Passes

Altitude History

Altitude vs Time

uPlot chart will show altitude changes over time

Two-Line Element Set

1 57713U 23129R 25350.31555461 .00000218 00000-0 31170-4 0 9992
2 57713 43.0018 213.2522 0000886 264.1342 95.9399 15.02532959127973
Epoch: Dec 16, 2025 • Age: 19 hours

Current Status

Altitude 560.0 km
Velocity 7.58 km/s
Sub-Earth Point -7.56°S, 74.76°E
Launch Date Aug 27, 2023
Age 2.3 years
Type internet

Technical Details

Classification Payload
Mass 730.00 kg
Dry Mass 700.00 kg
Total Mass 730.00 kg
Length 0.30 m
Diameter 4.10 m
Span 29.00 m
Shape Box + pan
Manufacturer SPXS
Bus Type Starlink V2M
Phase Status In Orbit
Owner/State SPXS/US

Large Constellations

Loading constellations...